FIH10 EFHK-EFHK

Flight info

Callsign FIH10
Flight time N/A
Altitude 4000
Route DCT
Aircraft EC35/L-SFG/C

Departure

Time 2026-04-20 19:43
Airport Helsinki Vantaa Airport (EFHK)

Arrival

Time N/A
Airport Helsinki Vantaa Airport (EFHK)
Time Latitude Longitude Altitude Speed Heading
2026-04-20 19:37 60.31724 24.98264 185 ft 0 kts 328°
2026-04-20 19:40 60.31727 24.98269 188 ft 2 kts 34°
2026-04-20 19:40 60.31730 24.98265 184 ft 4 kts 72°
2026-04-20 19:41 60.30680 24.98856 185 ft 0 kts 332°
2026-04-20 19:41 60.30681 24.98860 185 ft 0 kts 338°
2026-04-20 19:42 60.30685 24.98859 187 ft 4 kts 289°
2026-04-20 19:42 60.30718 24.98823 217 ft 12 kts 295°
2026-04-20 19:42 60.30862 24.98507 368 ft 48 kts 314°
2026-04-20 19:42 60.30983 24.97578 465 ft 93 kts 273°
2026-04-20 19:43 60.30712 24.96229 496 ft 115 kts 230°
2026-04-20 19:43 60.30223 24.95041 708 ft 108 kts 233°
2026-04-20 19:43 60.29762 24.93790 823 ft 115 kts 230°
2026-04-20 19:43 60.29315 24.92402 911 ft 117 kts 240°
2026-04-20 19:44 60.28859 24.90856 565 ft 144 kts 237°
2026-04-20 19:44 60.28381 24.89279 732 ft 120 kts 241°
2026-04-20 19:44 60.27958 24.87810 798 ft 121 kts 241°
2026-04-20 19:44 60.27548 24.86384 919 ft 119 kts 244°
2026-04-20 19:45 60.27122 24.84862 840 ft 125 kts 244°
2026-04-20 19:45 60.26725 24.83366 1012 ft 117 kts 243°
2026-04-20 19:45 60.26250 24.81969 1067 ft 125 kts 234°
2026-04-20 19:45 60.25680 24.80569 982 ft 134 kts 230°
2026-04-20 19:46 60.25064 24.79027 667 ft 142 kts 231°
2026-04-20 19:46 60.24470 24.77467 570 ft 134 kts 235°
2026-04-20 19:46 60.23941 24.75998 607 ft 128 kts 236°
2026-04-20 19:46 60.23441 24.74511 592 ft 126 kts 242°
2026-04-20 19:47 60.23033 24.73005 668 ft 122 kts 246°
2026-04-20 19:47 60.22675 24.71399 653 ft 124 kts 250°
2026-04-20 19:47 60.22403 24.69715 605 ft 127 kts 262°
2026-04-20 19:47 60.22215 24.68037 721 ft 119 kts 257°
2026-04-20 19:48 60.21855 24.66472 680 ft 128 kts 240°
2026-04-20 19:48 60.21375 24.64921 603 ft 130 kts 237°
2026-04-20 19:48 60.20835 24.63454 582 ft 129 kts 236°
2026-04-20 19:48 60.20288 24.61979 531 ft 131 kts 232°
2026-04-20 19:49 60.19684 24.60623 496 ft 129 kts 228°
2026-04-20 19:49 60.19016 24.59378 478 ft 129 kts 219°
2026-04-20 19:49 60.18292 24.58310 456 ft 128 kts 214°
2026-04-20 19:49 60.17533 24.57412 448 ft 125 kts 210°
2026-04-20 19:50 60.16746 24.56602 429 ft 127 kts 205°
2026-04-20 19:50 60.15971 24.55756 316 ft 106 kts 193°
2026-04-20 19:50 60.15511 24.55311 241 ft 53 kts 169°
2026-04-20 19:50 60.15322 24.55078 55 ft 23 kts 130°
2026-04-20 19:51 60.15298 24.54959 16 ft 0 kts 71°
2026-04-20 19:51 60.15297 24.54959 16 ft 0 kts 67°